[[{"header":{"parameterUnit":"m.s-1","parameterCategory":1,"la1":30.2991,"la2":30.254,"lo1":-89.0895,"lo2":-89.0444,"dy":0.0017,"dx":0.0017,"nx":28,"ny":28,"refTime":"2024-08-21T09:00:00:Z","depth":0,"parameterNumber":2,"parameterNumberName":"U-component_of_WINDS"},"data":[0,0,0,0,0,0,0,0,0,0,0,0,0,0,0,0,0,0,0,0,0,0,0,0,0,0,0,0,0,0,0,0,0,0,0,0,0,0,0,0,0,0,0,0,0,0,0,0,0,0,0,0,0,0,0,0,0,0,-1.5122,-1.5121,0,-1.5082,-1.5081,-1.5081,-1.5087,-1.5088,-1.5089,-1.5089,-1.5045,-1.5043,-1.5041,0,0,0,0,0,0,0,0,0,0,0,0,0,-1.5201,-1.5199,-1.5122,-1.5121,-1.5121,-1.5082,-1.5081,-1.5081,-1.5087,-1.5088,-1.5089,-1.509,-1.5046,-1.5044,-1.5041,0,0,0,0,0,0,0,0,0,0,0,0,0,-1.5164,-1.5199,-1.5122,-1.512,-1.5119,-1.5082,-1.5081,-1.508,-1.5087,-1.5088,-1.5089,-1.509,-1.5046,-1.5044,-1.5041,-1.5003,0,0,-1.5033,-1.5031,0,0,0,0,0,0,0,0,-1.5166,-1.5161,-1.512,-1.512,-1.5119,-1.5091,-1.5093,-1.5054,-1.5087,-1.5099,-1.5089,-1.5091,-1.5059,-1.5055,-1.5045,-1.5001,-1.4999,-1.5032,-1.5031,-1.5029,-1.5029,0,0,0,0,0,0,0,-1.5168,-1.5163,-1.5106,-1.512,-1.5119,-1.5119,-1.5115,-1.5085,-1.5074,-1.5098,-1.5098,-1.5094,-1.5059,-1.5048,-1.5044,-1.4998,-1.5032,-1.503,-1.5028,-1.5027,-1.4918,-1.4917,0,0,0,0,0,0,-1.5172,-1.5165,-1.5107,-1.5105,-1.5146,-1.5117,-1.5112,-1.5099,-1.5074,-1.5071,-1.5093,-1.5094,-1.5052,-1.5048,-1.5043,-1.4996,-1.5029,-1.5027,-1.5025,-1.492,-1.4918,-1.4917,0,0,0,0,0,0,-1.5174,-1.5167,-1.5109,-1.5135,-1.5127,-1.5114,-1.5099,-1.5097,-1.5086,-1.507,-1.5068,-1.5084,-1.5053,-1.5047,-1.5013,-1.4994,-1.5026,-1.5023,-1.4921,-1.4919,-1.4917,-1.4901,0,0,0,0,0,0,-1.5176,-1.5168,-1.5154,-1.5134,-1.5126,-1.508,-1.5098,-1.5096,-1.5082,-1.5083,-1.5061,-1.5059,-1.5053,-1.5017,-1.501,-1.4991,-1.5021,-1.4923,-1.492,-1.4918,-1.4903,-1.4899,-1.4895,0,0,0,0,0,-1.5179,-1.5151,-1.5153,-1.5146,-1.5109,-1.5079,-1.5074,-1.507,-1.5081,-1.5066,-1.5055,-1.5059,-1.4997,-1.5013,-1.5005,-1.4985,-1.4924,-1.4921,-1.4918,-1.4905,-1.49,-1.4895,0,0,0,0,0,0,-1.5167,-1.5148,-1.5151,-1.5115,-1.5099,-1.508,-1.5062,-1.5064,-1.5044,-1.5046,-1.504,-1.5035,-1.5,-1.4989,-1.5007,-1.4946,-1.4962,-1.4957,-1.4955,-1.4949,-1.4946,-1.4948,-1.5019,0,0,0,0,0,-1.5161,-1.5139,-1.5123,-1.5094,-1.5085,-1.5075,-1.5062,-1.506,-1.5042,-1.5035,-1.5022,-1.5003,-1.4979,-1.4964,-1.4941,-1.4902,-1.4896,-1.4884,-1.488,-1.4877,-1.4873,-1.485,-1.4844,-1.4908,-1.4908,-1.4908,0,0,-1.5147,-1.5134,-1.512,-1.5091,-1.5078,-1.5055,-1.5069,-1.5044,-1.5026,-1.5031,-1.4998,-1.4987,-1.4966,-1.4929,-1.4912,-1.4919,-1.4854,-1.4873,-1.4871,-1.4869,-1.4846,-1.484,-1.4835,-1.4906,-1.4906,-1.4906,0,0,-1.5109,-1.5098,-1.5071,-1.5058,-1.5038,-1.5031,-1.5025,-1.5006,-1.4999,-1.4966,-1.4969,-1.4947,-1.4907,-1.4891,-1.4878,-1.4834,-1.4836,-1.4826,-1.4805,-1.4783,-1.4778,-1.4773,-1.4756,-1.475,-1.4822,-1.4822,-1.4822,0,-1.5094,-1.506,-1.5057,-1.5032,-1.5018,-1.5022,-1.4994,-1.4981,-1.4954,-1.4944,-1.4953,-1.4902,-1.4888,-1.4846,-1.4835,-1.4825,-1.4816,-1.4829,-1.4779,-1.4774,-1.477,-1.4754,-1.4748,-1.4821,-1.4821,-1.4822,-1.4822,0,-1.5042,-1.5018,-1.4999,-1.4974,-1.4958,-1.4932,-1.4923,-1.4907,-1.4906,-1.4898,-1.4863,-1.4847,-1.482,-1.481,-1.4809,-1.4768,-1.4773,-1.4781,-1.4796,-1.4763,-1.4747,-1.4741,-1.482,-1.482,-1.482,-1.4821,0,0,-1.4996,-1.4969,-1.4962,-1.495,-1.4929,-1.4909,-1.4882,-1.4857,-1.4843,-1.4825,-1.4801,-1.4766,-1.4773,-1.4758,-1.4754,-1.4735,-1.4699,-1.4744,-1.4744,-1.4736,-1.4652,-1.4646,-1.4639,-1.4701,-1.47,-1.4699,-1.4653,0,-1.4956,-1.4909,-1.4905,-1.4862,-1.484,-1.4842,-1.4819,-1.4802,-1.4793,-1.4771,-1.4762,-1.4737,-1.4748,-1.4739,-1.4719,-1.4708,-1.4682,-1.4711,-1.4677,-1.4676,-1.4682,-1.4631,-1.4625,-1.4583,-1.4647,-1.4646,-1.4645,0,-1.4903,-1.4883,-1.4838,-1.4819,-1.4809,-1.4788,-1.4764,-1.4744,-1.4724,-1.4719,-1.4702,-1.4701,-1.4672,-1.4689,-1.4647,-1.4667,-1.4653,-1.4645,-1.4643,-1.4639,-1.4658,-1.4625,-1.4569,-1.4562,-1.4636,-1.4637,-1.4637,0,-1.4872,-1.4835,-1.4803,-1.4793,-1.4769,-1.4754,-1.4743,-1.4725,-1.471,-1.4689,-1.4678,-1.4654,-1.464,-1.462,-1.4612,-1.4625,-1.457,-1.4587,-1.4564,-1.4564,-1.4552,-1.4553,-1.4492,-1.4544,-1.4544,-1.4545,-1.4545,0,-1.4827,-1.48,-1.4789,-1.4769,-1.4738,-1.4733,-1.4701,-1.4691,-1.4674,-1.4652,-1.4652,-1.4631,-1.4622,-1.4599,-1.4592,-1.4558,-1.4552,-1.4546,-1.4544,-1.4545,-1.4546,-1.4536,-1.4538,-1.4543,-1.4543,-1.4544,-1.4544,0,-1.4788,-1.478,-1.4745,-1.4726,-1.472,-1.4698,-1.4681,-1.4661,-1.4652,-1.4624,-1.4616,-1.4603,-1.4575,-1.4565,-1.4532,-1.4527,-1.4487,-1.4489,-1.4494,-1.4494,-1.4471,-1.4473,-1.4401,-1.4391,-1.445,-1.445,-1.4449,0,-1.476,-1.4739,-1.4717,-1.4702,-1.4691,-1.4667,-1.4652,-1.4646,-1.4629,-1.4605,-1.4587,-1.456,-1.4538,-1.4494,-1.448,-1.4454,-1.4454,-1.4431,-1.445,-1.4451,-1.4452,-1.4453,-1.4451,-1.4427,-1.4426,-1.4426,-1.4425,0,-1.471,-1.4707,-1.4685,-1.4661,-1.4643,-1.4624,-1.4605,-1.4593,-1.4584,-1.4565,-1.4537,-1.452,-1.4486,-1.4458,-1.4431,-1.4419,-1.442,-1.4419,-1.4412,-1.4413,-1.4417,-1.4413,-1.4483,-1.4421,-1.4421,-1.4422,-1.4422,-1.4422,-1.4675,-1.4656,-1.4637,-1.4612,-1.4598,-1.458,-1.456,-1.4549,-1.4526,-1.4499,-1.4496,-1.4465,-1.4445,-1.4409,-1.4395,-1.4371,-1.4377,-1.4367,-1.4365,-1.4362,-1.436,-1.4421,-1.4366,-1.4366,-1.4366,-1.4366,-1.4366,0,-1.4624,-1.4612,-1.459,-1.4564,-1.4544,-1.4548,-1.4527,-1.451,-1.4483,-1.4465,-1.4443,-1.441,-1.4383,-1.4367,-1.434,-1.4323,-1.4323,-1.4316,-1.4317,-1.4313,-1.4357,-1.4365,-1.4316,-1.4316,-1.4316,-1.4316,-1.4316,-1.4316,-1.4595,-1.4563,-1.4557,-1.4517,-1.4505,-1.4476,-1.4463,-1.4446,-1.4431,-1.4395,-1.4373,-1.4363,-1.4345,-1.4316,-1.4291,-1.4287,-1.4276,-1.4269,-1.4265,-1.4305,-1.4311,-1.4315,-1.4323,-1.4267,-1.4267,-1.4224,-1.4223,-1.4223]},{"header":{"parameterUnit":"m.s-1","parameterCategory":1,"la1":30.2991,"la2":30.254,"lo1":-89.0895,"lo2":-89.0444,"dy":0.0017,"dx":0.0017,"nx":28,"ny":28,"refTime":"2024-08-21T09:00:00:Z","depth":0,"parameterNumber":3,"parameterNumberName":"V-component_of_WINDS"},"data":[0,0,0,0,0,0,0,0,0,0,0,0,0,0,0,0,0,0,0,0,0,0,0,0,0,0,0,0,0,0,0,0,0,0,0,0,0,0,0,0,0,0,0,0,0,0,0,0,0,0,0,0,0,0,0,0,0,0,0.0249,0.0248,0,0.0209,0.0208,0.0208,0.0135,0.0133,0.0132,0.0131,0.009,0.009,0.009,0,0,0,0,0,0,0,0,0,0,0,0,0,0.0261,0.0261,0.0249,0.0248,0.0248,0.0209,0.0208,0.0208,0.0135,0.0133,0.0131,0.013,0.009,0.009,0.009,0,0,0,0,0,0,0,0,0,0,0,0,0,0.0242,0.0261,0.0249,0.0207,0.0203,0.0209,0.0208,0.0207,0.0135,0.0133,0.0131,0.0129,0.009,0.009,0.009,0.0134,0,0,0.0091,0.0091,0,0,0,0,0,0,0,0,0.0243,0.0241,0.0213,0.021,0.0205,0.0174,0.0197,0.0183,0.0136,0.0161,0.013,0.0128,0.012,0.0117,0.0115,0.0132,0.0131,0.0091,0.0092,0.0092,0.0092,0,0,0,0,0,0,0,0.0244,0.0243,0.0233,0.0213,0.0208,0.0189,0.0184,0.0194,0.0153,0.0159,0.0153,0.0149,0.0117,0.0114,0.0113,0.013,0.0091,0.0092,0.0092,0.0092,0.0178,0.018,0,0,0,0,0,0,0.0252,0.0244,0.0234,0.0232,0.0219,0.0191,0.0185,0.0186,0.0152,0.0145,0.0151,0.0146,0.0115,0.0113,0.0111,0.0158,0.0092,0.0092,0.0092,0.0176,0.0179,0.0181,0,0,0,0,0,0,0.0252,0.0252,0.0236,0.0236,0.0233,0.0193,0.0195,0.0187,0.0184,0.0147,0.0139,0.0156,0.0113,0.0111,0.0128,0.0155,0.0092,0.0092,0.0174,0.0177,0.018,0.0253,0,0,0,0,0,0,0.0253,0.0252,0.0269,0.0237,0.0233,0.0254,0.0197,0.0187,0.0185,0.0178,0.0149,0.0143,0.0111,0.0128,0.0129,0.0155,0.0093,0.0171,0.0175,0.0179,0.0248,0.0258,0.0267,0,0,0,0,0,0.0254,0.0292,0.0271,0.027,0.0254,0.0256,0.0253,0.0216,0.0187,0.0203,0.0179,0.0144,0.0153,0.0131,0.013,0.0157,0.0169,0.0174,0.0179,0.0244,0.0256,0.0267,0,0,0,0,0,0,0.0329,0.0287,0.0263,0.0292,0.0278,0.0244,0.0263,0.0232,0.0226,0.0219,0.0174,0.0168,0.0191,0.0176,0.0152,0.0196,0.0155,0.016,0.0205,0.0216,0.0226,0.0228,0.0093,0,0,0,0,0,0.0349,0.0355,0.0318,0.0348,0.0342,0.0304,0.0303,0.0276,0.0259,0.0253,0.023,0.0215,0.0214,0.0215,0.0212,0.0246,0.0237,0.0264,0.0273,0.0281,0.0286,0.0299,0.0309,0.0196,0.0196,0.0196,0,0,0.0391,0.0369,0.0375,0.0362,0.0348,0.0353,0.0299,0.0309,0.0312,0.0255,0.0268,0.0251,0.0232,0.0256,0.0266,0.0245,0.0315,0.0287,0.0294,0.0294,0.0305,0.0316,0.0325,0.02,0.0199,0.0199,0,0,0.0469,0.0454,0.0475,0.0461,0.044,0.0414,0.0419,0.0389,0.0375,0.0388,0.0344,0.0348,0.0348,0.0335,0.0328,0.0398,0.0365,0.0399,0.0448,0.0462,0.0471,0.0478,0.0501,0.0509,0.0404,0.0404,0.0404,0,0.0523,0.053,0.049,0.0501,0.0495,0.0443,0.0463,0.0452,0.0431,0.0428,0.0405,0.0401,0.0385,0.0404,0.0421,0.0419,0.0421,0.0401,0.0473,0.048,0.0486,0.0507,0.0516,0.0408,0.0408,0.0407,0.0407,0,0.0596,0.0602,0.0622,0.0601,0.0598,0.0614,0.0575,0.0577,0.0549,0.0525,0.0538,0.0516,0.0506,0.0509,0.0484,0.0524,0.0511,0.0481,0.0439,0.0502,0.052,0.0528,0.0414,0.0412,0.0411,0.041,0,0,0.0721,0.0677,0.0684,0.0673,0.0645,0.0648,0.066,0.065,0.0651,0.0639,0.0646,0.0647,0.0617,0.061,0.0582,0.0594,0.0647,0.0562,0.056,0.0576,0.0687,0.0709,0.0719,0.0625,0.0627,0.0628,0.0688,0,0.0791,0.0809,0.0772,0.0799,0.0802,0.0752,0.0762,0.0745,0.0723,0.0722,0.0697,0.0697,0.066,0.0655,0.0665,0.0639,0.0669,0.0634,0.063,0.0631,0.0635,0.0729,0.0752,0.081,0.0695,0.0697,0.0698,0,0.0875,0.0864,0.0891,0.0858,0.0858,0.0869,0.0855,0.0855,0.0834,0.0817,0.0807,0.0774,0.0782,0.0742,0.0752,0.0729,0.0725,0.0712,0.0714,0.071,0.0667,0.0725,0.0828,0.0835,0.0709,0.0708,0.0707,0,0.0959,0.0952,0.0966,0.0959,0.0922,0.093,0.0915,0.0892,0.0887,0.0875,0.0871,0.0861,0.0855,0.0847,0.0811,0.0786,0.0824,0.0782,0.0808,0.0809,0.0817,0.0817,0.0918,0.0819,0.0819,0.0819,0.0818,0,0.104,0.1057,0.1003,0.1012,0.103,0.0987,0.1005,0.0985,0.0965,0.0967,0.0924,0.0928,0.0881,0.0878,0.085,0.0861,0.0859,0.0844,0.0836,0.0847,0.0848,0.0842,0.0836,0.0821,0.082,0.082,0.082,0,0.1136,0.1101,0.1113,0.1076,0.1067,0.1082,0.105,0.1056,0.103,0.1034,0.1033,0.0993,0.0988,0.0951,0.0938,0.0919,0.0939,0.0925,0.0946,0.094,0.0967,0.0964,0.1066,0.1076,0.0974,0.0975,0.0975,0,0.1189,0.1201,0.1165,0.1163,0.115,0.1149,0.1143,0.1101,0.1097,0.1073,0.1081,0.1072,0.1063,0.1057,0.1026,0.1016,0.0999,0.1035,0.0997,0.1006,0.0996,0.0994,0.0994,0.1043,0.1044,0.1045,0.1046,0,0.1285,0.1266,0.126,0.1247,0.1241,0.1229,0.1215,0.1216,0.1169,0.1166,0.116,0.1153,0.1139,0.113,0.1113,0.1097,0.1063,0.1058,0.1063,0.1073,0.1084,0.1075,0.0965,0.1056,0.1055,0.1054,0.1054,0.1053,0.1359,0.1366,0.1341,0.1335,0.1319,0.1306,0.1308,0.1282,0.1276,0.1261,0.1237,0.1233,0.121,0.1184,0.117,0.1166,0.1147,0.1155,0.1156,0.1158,0.1162,0.1086,0.1163,0.1163,0.1163,0.1162,0.1162,0,0.145,0.1431,0.1425,0.1405,0.14,0.1369,0.135,0.1347,0.1345,0.1326,0.1317,0.1308,0.1299,0.1267,0.1254,0.1257,0.124,0.1254,0.1252,0.1249,0.1182,0.1178,0.1267,0.1267,0.1267,0.1267,0.1267,0.1267,0.1496,0.1506,0.1484,0.1484,0.1465,0.1461,0.1453,0.1439,0.1423,0.1416,0.1407,0.1387,0.1362,0.1346,0.1335,0.1326,0.1322,0.134,0.1326,0.1264,0.1254,0.1244,0.124,0.1341,0.1341,0.1392,0.1393,0.1393]}]]